Preview of NWS' New Version of Forecast
This preview is not operational and should not be used for support decisions.

Regional Weather Roundup (RWR)

Issued by National Weather Service (NWS)

                            
000
ASUS44 KJAN 180010
RWRMS 

MISSISSIPPI HOURLY WEATHER ROUNDUP
NATIONAL WEATHER SERVICE JACKSON MS
700 PM CDT MON JUN 17 2019

NOTE: "FAIR: INDICATES FEW OR NO CLOUDS BELOW 12,000 FEET WITH NO
SIGNIFICANT WEATHER AND/OR OBSTRUCTIONS TO VISIBILITY.

MSZ001>002-007>008-010>013-018>021-025>028-034>036-180100-
NORTHWEST MISSISSIPPI
  
CITY           SKY/WX    TMP DP  RH WIND       PRES   REMARKS
BATESVILLE     DRIZZLE   72  70  94 SE3       29.94S                  
CLARKSDALE     SUNNY     73  73 100 SE8       29.91F                  
CLEVELAND      MOCLDY    72  72 100 SE12      29.89F                  
GREENWOOD      FAIR      73  69  87 SE5       29.92S                  
6HR MIN TEMP:  73; 6HR MAX TEMP:  87; 6HR PCP:  0.02;                

GREENVILLE     FAIR      74  72  93 E8        29.89S                  
6HR MIN TEMP:  72; 6HR MAX TEMP:  85; 6HR PCP:  0.27;                

OLIVE BRANCH   PTSUNNY   77  77 100 S7        29.92R                  
OXFORD         LGT RAIN  70  70 100 E6        29.97F                  
TUNICA         LGT RAIN  72  70  94 W8        29.93R                  
WINONA         FAIR      70  70 100 CALM      29.94S                  
$$

MSZ003>006-009-014>017-022>024-029>033-037>039-180100-
NORTHEAST MISSISSIPPI
  
CITY           SKY/WX    TMP DP  RH WIND       PRES   REMARKS
ABERDEEN       LGT RAIN  70  70 100 NW5       29.97F                  
COLUMBUS AFB   NOT AVBL                                               
CORINTH        DRIZZLE   73  72  94 SW6       29.95R                  
GOLDN TRIANGLE FAIR      72  71  97 CALM      29.96F                  
STARKVILLE     MOCLDY    70  70 100 CALM      29.97F                  
TUPELO         LGT RAIN  73  70  90 SW7       29.97F FOG              
6HR MIN TEMP:  73; 6HR MAX TEMP:  92; 6HR PCP:  0.07;                

$$

MSZ040-058-180100-
CENTRAL MISSISSIPPI
  
CITY           SKY/WX    TMP DP  RH WIND       PRES   REMARKS
JACKSON INTL   NOT AVBL                                               
JACKSON HAWKNS FAIR      75  73  93 E5        29.94S                  
6HR MIN TEMP:  71; 6HR MAX TEMP:  87; 6HR PCP:  0.23;                

MADISON        FAIR      72  72 100 CALM      29.93S                  
MERIDIAN KEY   PTSUNNY   77  72  84 NE5       29.96S                  
6HR MIN TEMP:  76; 6HR MAX TEMP:  91; 6HR PCP:  0.04;                

MERIDIAN NAS   PTSUNNY   74  70  87 W7        29.96S                  
6HR MIN TEMP:  74; 6HR MAX TEMP:  90; 6HR PCP: TRACE;                

RAYMOND        DRIZZLE   75  75 100 E6        29.92F                  
VICKSBURG VKS  CLEAR     77  75  94 SE7G14    29.89F                  
$$

MSZ059>079-180100-
SOUTH MISSISSIPPI
  
CITY           SKY/WX    TMP DP  RH WIND       PRES   REMARKS
BROOKHAVEN     FAIR      77  73  88 CALM      29.95S                  
HATTIESBURG    FAIR      83  72  69 S6        29.94S                  
6HR MIN TEMP:  80; 6HR MAX TEMP:  89; 6HR PCP: TRACE;                

LAUREL         PTCLDY    80  73  78 NW5       29.94S                  
MCCOMB         PTSUNNY   77  73  87 SE7       29.93S                  
6HR MIN TEMP:  73; 6HR MAX TEMP:  84; 6HR PCP:  0.27;                

NATCHEZ        FAIR      78  74  87 SE9       29.91R                  
6HR MIN TEMP:  74; 6HR MAX TEMP:  86; 6HR PCP:  0.26;                

PINE BELT      FAIR      80  75  84 NE5       29.95S                  
6HR MIN TEMP:  76; 6HR MAX TEMP:  89; 6HR PCP:  0.01;                

$$

MSZ080>082-180100-
COASTAL MISSISSIPPI
  
CITY           SKY/WX    TMP DP  RH WIND       PRES   REMARKS
BAY ST LOUIS   MOSUNNY   73  72  94 NE5       29.95S                  
BILOXI         NOT AVBL                                               
PASCAGOULA     FAIR      85  74  69 SW5       29.95R HX  92           
6HR MIN TEMP:  85; 6HR MAX TEMP:  92;                                

GULFPORT       PTSUNNY   79  71  76 W9        29.94R                  
6HR MIN TEMP:  79; 6HR MAX TEMP:  89; 6HR PCP: TRACE;                

$$

LAZ007>009-015>016-023>026-180100-
NORTHEAST LOUISIANA
  
CITY           SKY/WX    TMP DP  RH WIND       PRES   REMARKS
BASTROP        MOCLDY    76  75  98 CALM      29.88S                  
TALLULAH/VBURG FAIR      79  73  82 SE6       29.89F                  
6HR MIN TEMP:  73; 6HR MAX TEMP:  80; 6HR PCP:  0.42;                

VIDALIA        FAIR      81  74  80 SE7       29.88S                  
$$